DW1113 Weather Reports


Display with metric or nautical units.
time (UTC)temp
F
wind
direction
speed
MPH
gust
MPH
rain 1hr
in
rain 24hr
in
rain mn
in
humidity
%
barometer
mb
20260510230550 86 315 1.0 4.0 0.00 0.00 0.00 69 1016.3
20260510230055 86 311 2.0 5.0 0.00 0.00 0.00 68 1016.0
20260510225549 87 342 1.0 5.0 0.00 0.00 0.00 67 1015.9
20260510225051 87 332 2.0 4.0 0.00 0.00 0.00 66 1016.0
20260510224552 88 293 1.0 8.0 0.00 0.00 0.00 67 1015.8
20260510224052 87 335 1.0 8.0 0.00 0.00 0.00 68 1015.9
20260510223552 87 280 2.0 8.0 0.00 0.00 0.00 68 1015.8
20260510223054 87 324 1.0 7.0 0.00 0.00 0.00 69 1016.0
20260510222552 87 320 1.0 7.0 0.00 0.00 0.00 71 1016.0
20260510222054 86 316 1.0 7.0 0.00 0.00 0.00 71 1016.0
20260510221558 85 305 3.0 8.0 0.00 0.00 0.00 71 1016.0
20260510221050 85 294 3.0 8.0 0.00 0.00 0.00 73 1015.8
20260510220552 84 281 2.0 7.0 0.00 0.00 0.00 76 1015.8
20260510220054 84 306 2.0 7.0 0.00 0.00 0.00 77 1016.1
20260510215550 84 286 2.0 7.0 0.00 0.00 0.00 78 1016.1
20260510215050 83 275 0.0 4.0 0.00 0.00 0.00 80 1016.2
20260510214549 83 285 2.0 6.0 0.00 0.00 0.00 81 1016.2
20260510214050 82 292 2.0 6.0 0.00 0.00 0.00 80 1016.1
20260510213552 82 311 1.0 5.0 0.00 0.00 0.00 81 1016.0
20260510213104 81 327 1.0 6.0 0.00 0.00 0.00 80 1016.0
20260510212552 81 0 1.0 6.0 0.00 0.00 0.00 81 1015.9
20260510212051 81 327 2.0 5.0 0.00 0.00 0.00 80 1016.1
20260510211555 81 333 1.0 4.0 0.00 0.00 0.00 81 1015.9
20260510211049 80 284 1.0 5.0 0.00 0.00 0.00 83 1016.0
20260510210551 80 285 0.0 6.0 0.00 0.00 0.00 84 1016.0
20260510210053 79 302 2.0 8.0 0.00 0.00 0.00 86 1016.1
20260510205552 78 310 2.0 9.0 0.00 0.00 0.00 87 1016.4
20260510205054 78 279 4.0 9.0 0.00 0.00 0.00 86 1016.3
20260510204553 78 298 4.0 8.0 0.00 0.00 0.00 87 1016.3
20260510204053 78 279 3.0 7.0 0.00 0.00 0.00 87 1016.4
20260510203552 78 281 1.0 6.0 0.00 0.00 0.00 87 1016.3
20260510203056 77 271 1.0 6.0 0.00 0.00 0.00 87 1016.4
20260510202554 77 0 0.0 9.0 0.00 0.00 0.00 87 1016.4
20260510202052 77 0 2.0 11.0 0.00 0.00 0.00 86 1016.7
20260510201557 77 275 4.0 15.0 0.00 0.00 0.00 83 1016.6
20260510201052 78 297 7.0 15.0 0.00 0.00 0.00 80 1016.6
20260510200552 80 302 7.0 18.0 0.00 0.00 0.00 74 1016.6
20260510200053 83 289 9.0 18.0 0.00 0.00 0.00 74 1016.6
20260510195552 86 329 8.0 18.0 0.00 0.00 0.00 68 1016.8
20260510195051 87 266 8.0 15.0 0.00 0.00 0.00 63 1016.3
20260510194602 88 355 4.0 11.0 0.00 0.00 0.00 63 1016.3
20260510194053 88 263 4.0 9.0 0.00 0.00 0.00 62 1016.3
20260510193553 88 301 3.0 11.0 0.00 0.00 0.00 61 1016.1
20260510193059 89 300 5.0 12.0 0.00 0.00 0.00 60 1016.1
20260510192552 90 324 6.0 12.0 0.00 0.00 0.00 58 1016.0
20260510192053 92 20 4.0 14.0 0.00 0.00 0.00 56 1016.3
20260510191557 94 348 5.0 14.0 0.00 0.00 0.00 53 1016.2
20260510191051 95 257 4.0 11.0 0.00 0.00 0.00 51 1016.1
20260510190553 95 271 4.0 11.0 0.00 0.00 0.00 50 1016.0
20260510190107 95 292 3.0 12.0 0.00 0.00 0.00 51 1016.0
20260510185552 94 242 3.0 12.0 0.00 0.00 0.00 52 1015.9
20260510185052 94 256 5.0 12.0 0.00 0.00 0.00 51 1016.1
20260510184557 94 254 2.0 9.0 0.00 0.00 0.00 51 1016.1
20260510184053 94 220 3.0 10.0 0.00 0.00 0.00 50 1016.2
20260510183552 95 182 4.0 10.0 0.00 0.00 0.00 50 1016.3
20260510183106 95 240 2.0 10.0 0.00 0.00 0.00 50 1016.3
20260510182551 95 0 3.0 10.0 0.00 0.00 0.00 52 1016.3
20260510182053 94 252 2.0 10.0 0.00 0.00 0.00 52 1016.3
20260510181553 94 261 6.0 11.0 0.00 0.00 0.00 52 1016.3
20260510181054 94 234 5.0 11.0 0.00 0.00 0.00 52 1016.3
20260510180553 94 179 2.0 8.0 0.00 0.00 0.00 53 1016.4
20260510180106 94 196 2.0 8.0 0.00 0.00 0.00 54 1016.5
20260510175554 94 189 3.0 8.0 0.00 0.00 0.00 54 1016.7
20260510175054 93 209 2.0 9.0 0.00 0.00 0.00 54 1016.8
20260510174605 93 166 3.0 9.0 0.00 0.00 0.00 54 1016.9
20260510174054 93 142 1.0 8.0 0.00 0.00 0.00 55 1016.8
20260510173551 92 285 2.0 7.0 0.00 0.00 0.00 56 1016.9
20260510173058 92 184 2.0 7.0 0.00 0.00 0.00 57 1017.1
20260510172552 92 256 3.0 7.0 0.00 0.00 0.00 55 1017.1
20260510172052 93 184 1.0 10.0 0.00 0.00 0.00 55 1017.0
20260510171608 93 249 4.0 10.0 0.00 0.00 0.00 54 1017.1
20260510171051 92 242 4.0 8.0 0.00 0.00 0.00 56 1017.2
20260510170551 92 261 2.0 8.0 0.00 0.00 0.00 55 1017.2
20260510170056 92 198 3.0 7.0 0.00 0.00 0.00 56 1017.2
20260510165552 92 252 2.0 7.0 0.00 0.00 0.00 56 1017.3
20260510165050 91 178 2.0 7.0 0.00 0.00 0.00 57 1017.4
20260510164609 91 188 2.0 7.0 0.00 0.00 0.00 58 1017.5
20260510164050 91 240 1.0 8.0 0.00 0.00 0.00 58 1017.5
20260510163551 91 187 2.0 8.0 0.00 0.00 0.00 58 1017.6
20260510163137 91 171 3.0 9.0 0.00 0.00 0.00 59 1017.8
20260510162552 91 129 3.0 9.0 0.00 0.00 0.00 59 1017.5
20260510162052 90 207 3.0 8.0 0.00 0.00 0.00 61 1017.8
20260510161552 89 186 2.0 8.0 0.00 0.00 0.00 60 1017.8
20260510161052 89 156 1.0 7.0 0.00 0.00 0.00 62 1017.7
20260510160552 88 187 2.0 6.0 0.00 0.00 0.00 63 1017.9
20260510160059 88 0 2.0 7.0 0.00 0.00 0.00 64 1017.8
20260510155554 88 202 2.0 7.0 0.00 0.00 0.00 63 1017.9
20260510155052 88 236 2.0 7.0 0.00 0.00 0.00 63 1017.9
20260510154557 88 246 2.0 6.0 0.00 0.00 0.00 64 1018.0
20260510154052 87 262 2.0 6.0 0.00 0.00 0.00 65 1017.9
20260510153551 87 0 2.0 6.0 0.00 0.00 0.00 65 1017.7
20260510153106 87 0 2.0 8.0 0.00 0.00 0.00 65 1017.9
20260510152551 87 167 3.0 8.0 0.00 0.00 0.00 65 1018.1
20260510152054 87 256 3.0 7.0 0.00 0.00 0.00 66 1018.0
20260510151614 87 250 3.0 6.0 0.00 0.00 0.00 66 1017.9
20260510151053 87 186 1.0 7.0 0.00 0.00 0.00 68 1017.8
20260510150552 87 170 3.0 7.0 0.00 0.00 0.00 69 1017.8
20260510150059 86 154 2.0 7.0 0.00 0.00 0.00 69 1017.7
20260510145551 86 171 2.0 6.0 0.00 0.00 0.00 70 1017.8
20260510145052 85 180 2.0 8.0 0.00 0.00 0.00 71 1017.7
20260510144604 85 0 2.0 8.0 0.00 0.00 0.00 72 1017.8
20260510144051 84 178 2.0 8.0 0.00 0.00 0.00 73 1017.7
20260510143554 84 261 3.0 10.0 0.00 0.00 0.00 73 1017.6
20260510143106 83 151 4.0 10.0 0.00 0.00 0.00 73 1017.5
20260510142553 83 229 3.0 9.0 0.00 0.00 0.00 76 1017.5
20260510142053 82 191 2.0 6.0 0.00 0.00 0.00 77 1017.7
20260510141558 82 178 3.0 6.0 0.00 0.00 0.00 77 1017.8
20260510141052 82 188 2.0 6.0 0.00 0.00 0.00 78 1017.9
20260510140555 82 235 3.0 6.0 0.00 0.00 0.00 78 1017.9
20260510140051 81 189 0.0 4.0 0.00 0.00 0.00 81 1017.9
20260510135552 80 196 2.0 4.0 0.00 0.00 0.00 81 1018.0
20260510135054 80 227 1.0 4.0 0.00 0.00 0.00 82 1017.9
20260510134558 79 0 1.0 4.0 0.00 0.00 0.00 83 1017.9
20260510134057 79 0 0.0 4.0 0.00 0.00 0.00 84 1017.8
20260510133553 79 0 1.0 5.0 0.00 0.00 0.00 84 1017.7
20260510133054 79 163 1.0 5.0 0.00 0.00 0.00 84 1017.6
20260510132553 78 0 1.0 5.0 0.00 0.00 0.00 84 1017.5
20260510132058 78 161 1.0 5.0 0.00 0.00 0.00 85 1017.5
20260510131558 78 158 1.0 5.0 0.00 0.00 0.00 85 1017.5
20260510131054 78 160 2.0 5.0 0.00 0.00 0.00 86 1017.4
20260510130558 78 167 1.0 5.0 0.00 0.00 0.00 86 1017.4
20260510130054 77 0 1.0 5.0 0.00 0.00 0.00 87 1017.4
20260510125554 77 150 1.0 5.0 0.00 0.00 0.00 88 1017.3
20260510125055 77 189 1.0 4.0 0.00 0.00 0.00 89 1017.4
20260510124559 76 178 1.0 5.0 0.00 0.00 0.00 90 1017.2
20260510124054 76 0 2.0 5.0 0.00 0.00 0.00 90 1017.3
20260510123554 76 153 1.0 6.0 0.00 0.00 0.00 90 1017.1
20260510123058 76 169 1.0 6.0 0.00 0.00 0.00 90 1017.2
20260510122553 76 0 0.0 5.0 0.00 0.00 0.00 90 1017.3
20260510122053 75 0 0.0 4.0 0.00 0.00 0.00 91 1017.1
20260510121555 75 159 0.0 4.0 0.00 0.00 0.00 91 1017.1
20260510121055 75 0 0.0 2.0 0.00 0.00 0.00 90 1017.0
20260510120554 75 0 0.0 5.0 0.00 0.00 0.00 90 1017.0
20260510120054 75 0 1.0 5.0 0.00 0.00 0.00 90 1016.8
20260510115553 75 153 0.0 5.0 0.00 0.00 0.00 90 1016.7
20260510115053 75 0 0.0 5.0 0.00 0.00 0.00 91 1016.6
20260510114559 75 0 0.0 4.0 0.00 0.00 0.00 90 1016.6
20260510114053 75 116 0.0 2.0 0.00 0.00 0.00 90 1016.6
20260510113554 74 0 0.0 1.0 0.00 0.00 0.00 90 1016.5
20260510113054 74 0 0.0 0.0 0.00 0.00 0.00 90 1016.4
20260510112553 74 0 0.0 0.0 0.00 0.00 0.00 90 1016.4
20260510112053 74 0 0.0 0.0 0.00 0.00 0.00 90 1016.3
20260510111600 74 0 0.0 0.0 0.00 0.00 0.00 90 1016.2
20260510111053 74 0 0.0 0.0 0.00 0.00 0.00 89 1016.1
20260510110553 74 0 0.0 0.0 0.00 0.00 0.00 89 1016.1
20260510110052 74 0 0.0 0.0 0.00 0.00 0.00 89 1016.0
20260510105554 74 0 0.0 0.0 0.00 0.00 0.00 89 1015.8
20260510105054 74 0 0.0 0.0 0.00 0.00 0.00 89 1015.7
20260510104554 74 0 0.0 0.0 0.00 0.00 0.00 89 1015.7
20260510104050 74 0 0.0 1.0 0.00 0.00 0.00 89 1015.6
20260510103553 74 0 0.0 2.0 0.00 0.00 0.00 89 1015.4
20260510103053 74 0 0.0 2.0 0.00 0.00 0.00 89 1015.2
20260510102553 74 0 0.0 2.0 0.00 0.00 0.00 89 1015.3
20260510102054 74 0 0.0 3.0 0.00 0.00 0.00 89 1015.2
20260510101554 74 0 0.0 3.0 0.00 0.00 0.00 89 1014.8
20260510101054 74 116 0.0 0.0 0.00 0.00 0.00 89 1014.8
20260510100553 75 0 0.0 0.0 0.00 0.00 0.00 89 1014.7
20260510100112 75 0 0.0 0.0 0.00 0.00 0.00 89 1014.9
20260510095552 75 0 0.0 0.0 0.00 0.00 0.00 88 1014.9
20260510095054 75 0 0.0 0.0 0.00 0.00 0.00 88 1015.0
20260510094601 75 0 0.0 0.0 0.00 0.00 0.00 88 1015.0
20260510094052 75 0 0.0 0.0 0.00 0.00 0.00 88 1014.8
20260510093551 75 0 0.0 0.0 0.00 0.00 0.00 88 1014.8
20260510093100 75 0 0.0 1.0 0.00 0.00 0.00 88 1014.9
20260510092554 75 0 0.0 1.0 0.00 0.00 0.00 88 1014.6
20260510092050 75 0 0.0 0.0 0.00 0.00 0.00 87 1014.8
20260510091552 75 0 0.0 1.0 0.00 0.00 0.00 87 1014.8
20260510091053 75 0 0.0 1.0 0.00 0.00 0.00 87 1014.7
20260510090553 75 0 0.0 1.0 0.00 0.00 0.00 87 1014.6
20260510085553 75 0 0.0 1.0 0.00 0.00 0.00 87 1014.6
20260510085053 75 0 0.0 0.0 0.00 0.00 0.00 87 1014.6
20260510084610 75 0 0.0 1.0 0.00 0.00 0.00 87 1014.6
20260510084053 75 0 0.0 1.0 0.00 0.00 0.00 87 1014.4
20260510083553 75 0 0.0 1.0 0.00 0.00 0.00 87 1014.5
20260510083057 75 0 0.0 1.0 0.00 0.00 0.00 87 1014.6
20260510082552 75 0 0.0 1.0 0.00 0.00 0.00 87 1014.4
20260510082053 75 0 0.0 1.0 0.00 0.00 0.00 86 1014.4
20260510081556 75 0 0.0 1.0 0.00 0.00 0.00 86 1014.5
20260510081054 75 0 0.0 1.0 0.00 0.00 0.00 86 1014.6
20260510080552 76 0 0.0 1.0 0.00 0.00 0.00 87 1014.5
20260510080057 75 0 0.0 1.0 0.00 0.00 0.00 87 1014.5
20260510075550 75 0 0.0 2.0 0.00 0.00 0.00 86 1014.6
20260510075051 75 0 0.0 2.0 0.00 0.00 0.00 86 1014.4
20260510074555 76 0 0.0 2.0 0.00 0.00 0.00 86 1014.5
20260510074052 76 0 0.0 0.0 0.00 0.00 0.00 86 1014.8
20260510073551 76 0 0.0 1.0 0.00 0.00 0.00 86 1014.8
20260510073105 76 0 0.0 1.0 0.00 0.00 0.00 86 1014.7
20260510072552 76 0 0.0 1.0 0.00 0.00 0.00 86 1014.7
20260510072054 76 0 0.0 1.0 0.00 0.00 0.00 86 1014.7
20260510071554 76 0 0.0 1.0 0.00 0.00 0.00 86 1014.7
20260510071052 76 0 0.0 1.0 0.00 0.00 0.00 85 1014.7
20260510070552 76 0 0.0 2.0 0.00 0.00 0.00 86 1014.9
20260510070055 76 0 0.0 2.0 0.00 0.00 0.00 85 1015.1
20260510065552 76 0 0.0 2.0 0.00 0.00 0.00 85 1015.0
20260510065053 76 116 0.0 2.0 0.00 0.00 0.00 85 1014.9
20260510064554 76 0 0.0 2.0 0.00 0.00 0.00 85 1015.1
20260510064053 76 0 0.0 2.0 0.00 0.00 0.00 85 1015.2
20260510063553 76 0 0.0 1.0 0.00 0.00 0.00 85 1015.1
20260510063054 76 0 0.0 1.0 0.00 0.00 0.00 85 1015.1
20260510062552 76 0 0.0 1.0 0.00 0.00 0.00 85 1015.1
20260510062052 76 0 0.0 2.0 0.00 0.00 0.00 85 1015.1
20260510061558 76 0 0.0 2.0 0.00 0.00 0.00 85 1015.0
20260510061054 76 115 0.0 2.0 0.00 0.00 0.00 84 1015.1
20260510060554 76 0 0.0 1.0 0.00 0.00 0.00 84 1015.1
20260510060055 76 0 0.0 1.0 0.00 0.00 0.00 84 1015.2
20260510055554 76 0 0.0 1.0 0.00 0.00 0.00 84 1015.4
20260510055057 76 0 0.0 1.0 0.00 0.00 0.00 84 1015.5
20260510054556 76 0 0.0 3.0 0.00 0.00 0.00 84 1015.6
20260510054052 76 0 0.0 3.0 0.00 0.00 0.00 84 1015.6
20260510053552 76 0 0.0 3.0 0.00 0.00 0.00 84 1015.5
20260510053055 76 109 1.0 3.0 0.00 0.00 0.00 84 1015.4
20260510052550 76 107 0.0 4.0 0.00 0.00 0.00 84 1015.4
20260510052056 76 105 0.0 4.0 0.00 0.00 0.00 83 1015.4
20260510051554 76 104 1.0 3.0 0.00 0.00 0.00 83 1015.5
20260510051053 76 0 1.0 4.0 0.00 0.00 0.00 83 1015.6
20260510050552 77 100 1.0 4.0 0.00 0.00 0.00 83 1015.7
20260510050057 77 0 0.0 1.0 0.00 0.00 0.00 82 1015.9
20260510045553 77 0 0.0 2.0 0.00 0.00 0.00 83 1015.9
20260510045051 77 0 0.0 2.0 0.00 0.00 0.00 82 1015.9
20260510044559 77 0 0.0 2.0 0.00 0.00 0.00 82 1015.9
20260510044052 77 0 0.0 1.0 0.00 0.00 0.00 82 1016.0
20260510043553 77 0 0.0 0.0 0.00 0.00 0.00 82 1016.0
20260510043108 77 0 0.0 0.0 0.00 0.00 0.00 82 1016.1
20260510042550 77 0 0.0 0.0 0.00 0.00 0.00 81 1016.2
20260510042053 77 0 0.0 1.0 0.00 0.00 0.00 81 1016.0
20260510041555 77 0 0.0 1.0 0.00 0.00 0.00 81 1016.0
20260510041053 77 0 0.0 1.0 0.00 0.00 0.00 81 1016.0
20260510040553 77 0 0.0 1.0 0.00 0.00 0.00 81 1016.0
20260510035550 77 0 0.0 1.0 0.00 0.00 0.00 81 1015.9
20260510035050 78 0 0.0 0.0 0.00 0.00 0.00 80 1015.9
20260510034558 78 0 0.0 1.0 0.00 0.00 0.00 80 1015.9
20260510034053 78 0 0.0 2.0 0.00 0.00 0.00 80 1016.0
20260510033553 78 0 0.0 2.0 0.00 0.00 0.00 80 1016.0
20260510033119 78 80 0.0 2.0 0.00 0.00 0.00 80 1015.9
20260510032554 78 80 0.0 2.0 0.00 0.00 0.00 80 1015.8
20260510032050 78 80 0.0 2.0 0.00 0.00 0.00 80 1015.9
20260510031613 78 0 0.0 3.0 0.00 0.00 0.00 79 1015.8
20260510031053 78 0 0.0 3.0 0.00 0.00 0.00 79 1015.9
20260510030553 79 79 0.0 1.0 0.00 0.00 0.00 80 1016.0
20260510030100 78 0 0.0 2.0 0.00 0.00 0.00 80 1015.9
20260510025550 78 0 0.0 2.0 0.00 0.00 0.00 80 1016.0
20260510025053 78 0 0.0 2.0 0.00 0.00 0.00 80 1015.9
20260510024555 78 86 0.0 2.0 0.00 0.00 0.00 80 1015.9
20260510024056 78 0 0.0 3.0 0.00 0.00 0.00 80 1015.9
20260510023553 78 0 0.0 3.0 0.00 0.00 0.00 80 1015.9
20260510023052 78 89 0.0 3.0 0.00 0.00 0.00 80 1015.9
20260510022551 78 83 1.0 3.0 0.00 0.00 0.00 80 1015.8
20260510022054 78 64 0.0 3.0 0.00 0.00 0.00 80 1015.7
20260510021552 78 0 0.0 5.0 0.00 0.00 0.00 80 1015.7
20260510021049 78 0 0.0 5.0 0.00 0.00 0.00 80 1015.8
20260510020550 78 54 1.0 5.0 0.00 0.00 0.00 80 1015.6
20260510020054 78 65 0.0 5.0 0.00 0.00 0.00 80 1015.5
20260510015551 78 106 1.0 6.0 0.00 0.00 0.00 79 1015.5
20260510015050 79 59 2.0 6.0 0.00 0.00 0.00 79 1015.4
20260510014553 79 76 2.0 8.0 0.00 0.00 0.00 78 1015.4
20260510014050 79 84 1.0 8.0 0.00 0.00 0.00 78 1015.4
20260510013553 80 63 2.0 8.0 0.00 0.00 0.00 78 1015.3
20260510013053 80 63 2.0 8.0 0.00 0.00 0.00 77 1015.3
20260510012555 80 78 0.0 5.0 0.00 0.00 0.00 77 1015.4
20260510012052 80 0 1.0 6.0 0.00 0.00 0.00 76 1015.2
20260510011550 81 61 1.0 6.0 0.00 0.00 0.00 76 1015.2
20260510011052 81 0 2.0 6.0 0.00 0.00 0.00 75 1015.3
20260510010552 81 0 2.0 7.0 0.00 0.00 0.00 75 1015.1
20260510010058 81 46 2.0 8.0 0.00 0.00 0.00 75 1015.1
20260510005552 81 34 1.0 8.0 0.00 0.00 0.00 74 1014.9
20260510005052 81 22 1.0 7.0 0.00 0.00 0.00 74 1014.9
20260510004553 82 38 1.0 5.0 0.00 0.00 0.00 73 1014.8
20260510004052 82 76 1.0 8.0 0.00 0.00 0.00 73 1014.6
20260510003552 82 53 1.0 8.0 0.00 0.00 0.00 73 1014.5
20260510003053 82 62 2.0 11.0 0.00 0.00 0.00 72 1014.5
20260510002553 83 101 3.0 11.0 0.00 0.00 0.00 72 1014.6
20260510002052 83 40 2.0 8.0 0.00 0.00 0.00 72 1014.4
20260510001554 83 44 2.0 8.0 0.00 0.00 0.00 71 1014.5
20260510001052 83 64 2.0 8.0 0.00 0.00 0.00 71 1014.5
20260510000552 84 44 1.0 9.0 0.00 0.00 0.00 70 1014.2
20260510000107 84 50 2.0 9.0 0.00 0.00 0.00 70 1014.2
20260509235552 84 71 2.0 9.0 0.00 0.00 0.00 69 1014.2
20260509235052 85 28 3.0 10.0 0.00 0.00 0.00 68 1014.1
20260509234603 86 62 3.0 10.0 0.00 0.00 0.00 67 1014.1
20260509234052 86 0 2.0 10.0 0.00 0.00 0.00 66 1014.0
20260509233551 87 32 2.0 11.0 0.00 0.00 0.00 67 1013.8
20260509233053 87 19 3.0 11.0 0.00 0.00 0.00 65 1013.7
20260509232553 88 36 2.0 10.0 0.00 0.00 0.00 65 1013.6
20260509232052 89 15 2.0 10.0 0.00 0.00 0.00 64 1013.6
20260509231553 89 105 3.0 10.0 0.00 0.00 0.00 62 1013.5
20260509231050 90 74 3.0 10.0 0.00 0.00 0.00 60 1013.3